KD9IXX-13 Weather Reports


Display with metric or nautical units.
time (UTC)temp
F
wind
direction
speed
MPH
gust
MPH
rain 1hr
in
rain 24hr
in
rain mn
in
humidity
%
barometer
mb
20260505173001 54 262 3.0 4.0 0.00 0.00 0.07 59 1010.8
20260505172502 54 284 2.0 11.0 0.00 0.00 0.07 61 1011.1
20260505172002 54 305 3.0 9.0 0.00 0.00 0.07 58 1011.1
20260505171502 54 296 3.0 6.0 0.00 0.00 0.07 57 1011.0
20260505171003 55 295 3.0 7.0 0.00 0.00 0.07 55 1010.9
20260505170502 55 318 2.0 6.0 0.00 0.00 0.07 58 1010.7
20260505170002 55 288 2.0 6.0 0.00 0.00 0.07 57 1010.9
20260505165502 56 293 3.0 9.0 0.00 0.00 0.07 54 1010.8
20260505165001 55 315 4.0 9.0 0.00 0.00 0.07 57 1010.6
20260505164502 56 278 4.0 10.0 0.00 0.00 0.07 54 1010.9
20260505164002 57 289 4.0 7.0 0.00 0.00 0.07 51 1010.7
20260505163502 56 271 4.0 6.0 0.00 0.00 0.07 53 1010.9
20260505163001 56 225 4.0 9.0 0.00 0.00 0.07 52 1010.8
20260505162502 56 310 3.0 6.0 0.00 0.00 0.07 53 1010.7
20260505162002 56 312 4.0 7.0 0.00 0.00 0.07 55 1010.4
20260505161501 55 285 1.0 4.0 0.00 0.00 0.07 58 1010.7
20260505161002 55 305 3.0 5.0 0.00 0.00 0.07 63 1010.5
20260505160502 54 313 3.0 6.0 0.00 0.00 0.07 62 1010.5
20260505153001 52 309 3.0 6.0 0.00 0.00 0.07 68 1010.7
20260505152502 51 290 1.0 2.0 0.00 0.00 0.07 74 1010.5
20260505152002 52 290 2.0 6.0 0.00 0.00 0.07 76 1010.5
20260505151502 51 296 2.0 3.0 0.00 0.00 0.07 81 1010.6
20260505151002 50 301 2.0 5.0 0.00 0.00 0.07 82 1010.5
20260505150502 50 296 2.0 6.0 0.00 0.00 0.07 85 1010.6
20260505140501 45 317 3.0 5.0 0.00 0.00 0.07 97 1011.3
20260505125002 46 318 2.0 6.0 0.11 0.00 0.02 88 1010.4
20260505124502 46 289 3.0 4.0 0.07 0.00 0.02 87 1010.0
20260505124002 47 284 2.0 5.0 0.04 0.00 0.00 86 1009.7
20260505123502 48 326 2.0 5.0 0.04 0.00 0.00 82 1009.5
20260505123002 48 292 1.0 3.0 0.00 0.00 0.00 78 1009.5
20260505122502 49 286 3.0 7.0 0.00 0.00 0.00 75 1010.0
20260505122002 50 319 2.0 6.0 0.00 0.00 0.00 73 1009.9
20260505121501 50 0 4.0 5.0 0.00 0.00 0.00 72 1010.0
20260505121002 50 315 1.0 3.0 0.00 0.00 0.00 71 1010.0
20260505120502 50 299 5.0 6.0 0.00 0.00 0.00 69 1009.9
20260505120003 50 315 4.0 5.0 0.00 0.00 0.00 68 1009.8
20260505115502 51 316 2.0 4.0 0.00 0.00 0.00 68 1009.8
20260505115002 51 292 3.0 4.0 0.00 0.00 0.00 67 1009.8
20260505114502 51 301 1.0 3.0 0.00 0.00 0.00 67 1009.3
20260505114001 51 302 2.0 5.0 0.00 0.00 0.00 66 1008.9
20260505113502 51 342 3.0 5.0 0.00 0.00 0.00 68 1008.9
20260505113002 51 294 2.0 3.0 0.00 0.00 0.00 69 1008.4
20260505112502 51 296 2.0 6.0 0.00 0.00 0.00 71 1008.8
20260505112001 50 298 1.0 6.0 0.00 0.00 0.00 76 1008.5
20260505111502 50 313 2.0 3.0 0.00 0.00 0.00 79 1008.4
20260505111002 50 302 2.0 3.0 0.00 0.00 0.00 80 1008.1
20260505110502 50 317 1.0 2.0 0.00 0.00 0.00 80 1007.8
20260505102003 52 287 1.0 3.0 0.00 0.00 0.00 75 1007.7
20260505101503 52 276 2.0 4.0 0.00 0.00 0.00 75 1008.1
20260505101002 51 289 2.0 4.0 0.00 0.00 0.00 76 1007.8
20260505100502 51 288 0.0 0.0 0.00 0.00 0.00 75 1007.7
20260505100002 52 291 0.0 0.0 0.00 0.00 0.00 75 1007.5
20260505095501 52 287 0.0 2.0 0.00 0.00 0.00 74 1007.4
20260505095002 52 290 2.0 3.0 0.00 0.00 0.00 73 1007.4
20260505094502 52 289 1.0 4.0 0.00 0.00 0.00 72 1007.7
20260505094002 52 279 1.0 3.0 0.00 0.00 0.00 71 1007.7
20260505093502 53 287 0.0 3.0 0.00 0.00 0.00 71 1007.4
20260505093002 53 271 1.0 3.0 0.00 0.00 0.00 70 1007.8
20260505092502 53 304 2.0 3.0 0.00 0.00 0.00 70 1007.6
20260505092002 53 286 3.0 4.0 0.00 0.00 0.00 70 1007.6
20260505091502 53 290 0.0 2.0 0.00 0.00 0.00 72 1007.5
20260505091002 53 283 1.0 4.0 0.00 0.00 0.00 72 1007.6
20260505090502 53 281 2.0 4.0 0.00 0.00 0.00 73 1007.3
20260505090002 52 293 1.0 3.0 0.00 0.00 0.00 74 1007.4
20260505085502 52 289 1.0 3.0 0.00 0.00 0.00 75 1007.4
20260505085002 52 283 1.0 2.0 0.00 0.00 0.00 76 1007.0
20260505084502 53 284 1.0 2.0 0.00 0.00 0.00 75 1007.0
20260505084002 52 285 1.0 2.0 0.00 0.00 0.00 71 1006.8
20260505083502 52 292 0.0 0.0 0.00 0.00 0.00 72 1006.2
20260505083002 53 293 0.0 0.0 0.00 0.00 0.00 72 1006.3
20260505082502 53 288 0.0 0.0 0.00 0.00 0.00 70 1006.0
20260505082002 53 287 0.0 0.0 0.00 0.00 0.00 71 1006.0
20260505081503 53 285 1.0 2.0 0.00 0.00 0.00 69 1006.2
20260505081002 54 279 1.0 2.0 0.00 0.00 0.00 68 1006.1
20260505080503 53 263 2.0 3.0 0.00 0.00 0.00 68 1005.8
20260505080002 53 266 2.0 2.0 0.00 0.00 0.00 68 1005.7
20260505075502 53 286 0.0 0.0 0.00 0.00 0.00 68 1005.4
20260505075002 52 286 2.0 3.0 0.00 0.00 0.00 68 1005.3
20260505074503 52 280 1.0 2.0 0.00 0.00 0.00 69 1005.2
20260505074002 51 286 0.0 2.0 0.00 0.00 0.00 71 1005.4
20260505073502 51 296 0.0 0.0 0.00 0.00 0.00 71 1005.2
20260505073002 51 297 0.0 2.0 0.00 0.00 0.00 72 1004.8
20260505072502 52 297 0.0 0.0 0.00 0.00 0.00 72 1004.8
20260505072002 52 293 0.0 0.0 0.00 0.00 0.00 68 1004.8
20260505071502 53 295 0.0 0.0 0.00 0.00 0.00 67 1004.6
20260505071002 54 291 0.0 2.0 0.00 0.00 0.00 65 1004.5
20260505070502 54 289 2.0 2.0 0.00 0.00 0.00 65 1004.6
20260505070002 54 308 2.0 3.0 0.00 0.00 0.00 64 1004.7
20260505065502 55 309 1.0 3.0 0.00 0.00 0.00 63 1005.0
20260505065002 55 295 1.0 3.0 0.00 0.00 0.00 64 1004.9
20260505064502 55 279 2.0 4.0 0.00 0.00 0.00 63 1004.7
20260505064002 56 285 1.0 5.0 0.00 0.00 0.00 63 1004.4
20260505063503 56 301 3.0 6.0 0.00 0.00 0.00 62 1004.2
20260505063002 56 319 2.0 4.0 0.00 0.00 0.00 62 1004.0
20260505062502 57 311 3.0 6.0 0.00 0.00 0.00 61 1004.1
20260505062002 57 291 2.0 6.0 0.00 0.00 0.00 62 1003.9
20260505061502 57 297 3.0 9.0 0.00 0.00 0.00 61 1003.8
20260505061001 57 344 3.0 7.0 0.00 0.00 0.00 62 1003.9
20260505060502 57 304 3.0 5.0 0.00 0.00 0.00 65 1004.1
20260505060002 58 304 2.0 5.0 0.00 0.00 0.00 67 1004.2
20260505055502 58 285 5.0 9.0 0.00 0.00 0.00 68 1004.3
20260505055002 58 272 5.0 7.0 0.00 0.00 0.00 71 1003.9
20260505054501 58 334 4.0 5.0 0.00 0.00 0.00 74 1003.8
20260505054002 58 313 4.0 9.0 0.00 0.00 0.00 76 1003.9
20260505053502 58 312 3.0 7.0 0.00 0.00 0.00 78 1003.8
20260505053002 58 263 4.0 7.0 0.00 0.00 0.00 80 1003.9
20260505052503 58 303 6.0 10.0 0.00 0.00 0.00 83 1004.3
20260505052002 58 284 3.0 9.0 0.00 0.00 0.00 85 1004.0
20260505051501 58 312 1.0 4.0 0.00 0.00 0.00 88 1003.8
20260505051002 58 299 2.0 6.0 0.00 0.00 0.00 89 1003.8
20260505050502 58 309 4.0 5.0 0.00 0.00 0.00 90 1003.9
20260505041502 58 292 1.0 3.0 0.00 0.00 0.25 93 1003.3
20260505041002 58 258 2.0 2.0 0.00 0.00 0.25 93 1003.2
20260505040501 58 276 2.0 3.0 0.00 0.00 0.25 93 1003.4
20260505040002 58 279 2.0 4.0 0.00 0.00 0.25 93 1003.0
20260505035502 58 274 2.0 4.0 0.00 0.00 0.25 93 1003.0
20260505035002 58 283 1.0 4.0 0.00 0.00 0.25 93 1003.0
20260505034502 58 272 2.0 4.0 0.00 0.00 0.25 93 1003.5
20260505034002 58 258 2.0 3.0 0.00 0.00 0.25 94 1003.3
20260505033502 58 226 3.0 4.0 0.00 0.00 0.25 94 1003.1
20260505033002 58 259 3.0 5.0 0.00 0.00 0.25 94 1003.2
20260505032502 58 250 2.0 4.0 0.00 0.00 0.25 93 1003.1
20260505032002 58 228 3.0 4.0 0.00 0.00 0.25 93 1003.2
20260505031502 59 197 4.0 7.0 0.00 0.00 0.25 92 1003.1
20260505031002 59 245 2.0 5.0 0.00 0.00 0.25 91 1003.1
20260505030502 59 279 3.0 4.0 0.00 0.00 0.25 90 1002.9
20260505030002 59 271 2.0 4.0 0.00 0.00 0.25 90 1002.6
20260505025501 59 262 2.0 3.0 0.00 0.00 0.25 90 1002.7
20260505025002 59 268 3.0 3.0 0.00 0.00 0.25 89 1002.9
20260505024502 58 223 4.0 7.0 0.00 0.00 0.25 90 1002.6
20260505024002 58 234 1.0 4.0 0.07 0.00 0.25 91 1002.4
20260505023502 58 217 3.0 5.0 0.07 0.00 0.25 92 1002.6
20260505023001 58 199 4.0 5.0 0.00 0.00 0.24 92 1002.6
20260505022503 58 247 3.0 6.0 0.00 0.00 0.24 92 1002.8
20260505022001 58 227 3.0 5.0 0.00 0.00 0.24 92 1002.8
20260505021502 58 270 2.0 4.0 0.00 0.00 0.24 91 1002.9
20260505021002 58 220 4.0 5.0 0.04 0.00 0.24 91 1002.7
20260505020502 58 259 3.0 4.0 0.00 0.00 0.23 91 1002.5
20260505020002 58 220 4.0 5.0 0.07 0.00 0.23 91 1002.4
20260505015501 58 184 3.0 5.0 0.07 0.00 0.23 90 1002.3
20260505015002 58 242 4.0 6.0 0.04 0.00 0.22 90 1002.4
20260505014502 58 199 4.0 13.0 0.04 0.00 0.22 92 1002.5
20260505014001 57 281 4.0 6.0 0.07 0.00 0.21 94 1002.7
20260505013502 57 239 2.0 5.0 0.07 0.00 0.21 95 1003.1
20260505013002 57 262 3.0 9.0 0.04 0.00 0.20 94 1002.7
20260505012502 57 286 3.0 15.0 0.04 0.00 0.20 95 1003.2
20260505012002 57 276 6.0 10.0 0.07 0.00 0.19 96 1003.5
20260505011501 58 205 4.0 11.0 0.11 0.00 0.19 94 1003.2
20260505011002 60 240 13.0 20.0 0.11 0.00 0.18 89 1003.7
20260505010502 59 277 4.0 6.0 0.00 0.00 0.16 90 1002.8
20260505010002 59 228 2.0 5.0 0.07 0.00 0.16 89 1002.3
20260505005502 59 175 9.0 11.0 0.07 0.00 0.16 90 1002.1
20260505005003 59 246 2.0 6.0 0.00 0.00 0.15 92 1002.0
20260505004502 58 261 2.0 6.0 0.00 0.00 0.15 94 1001.8
20260505004002 58 228 4.0 7.0 0.00 0.00 0.15 95 1001.9
20260505003502 59 226 4.0 12.0 0.16 0.00 0.15 94 1001.6
20260505003002 62 149 4.0 9.0 0.30 0.00 0.14 90 1001.4
20260505002502 63 322 4.0 7.0 0.18 0.00 0.12 88 1001.4
20260505002002 63 292 2.0 5.0 0.00 0.00 0.09 87 1001.4
20260505001502 65 310 5.0 11.0 0.00 0.00 0.09 83 1001.6
20260505001002 66 0 3.0 14.0 0.00 0.00 0.09 80 1001.8
20260505000501 67 305 7.0 9.0 0.04 0.00 0.09 79 1001.2
20260505000002 67 281 4.0 10.0 0.04 0.00 0.09 77 1000.9
20260504235502 68 275 4.0 6.0 0.00 0.08 0.08 75 1000.4
20260504235003 67 261 2.0 10.0 0.00 0.08 0.08 75 999.9
20260504234502 67 230 2.0 6.0 0.00 0.08 0.08 75 999.6
20260504234002 66 273 2.0 5.0 0.00 0.00 0.08 76 1000.2
20260504233502 64 215 7.0 12.0 0.07 0.00 0.08 79 1000.3
20260504233002 66 187 4.0 11.0 0.07 0.00 0.08 82 1000.2
20260504232502 66 237 7.0 14.0 0.00 0.00 0.07 78 1000.5
20260504232002 65 246 3.0 11.0 0.00 0.00 0.07 82 1000.5
20260504231501 65 263 2.0 6.0 0.42 0.00 0.07 84 1000.4
20260504231002 68 200 10.0 18.0 0.42 0.00 0.07 82 1000.7
20260504230502 70 268 5.0 9.0 0.00 0.00 0.00 68 1000.2
20260504230002 70 215 3.0 5.0 0.00 0.00 0.00 67 1000.4
20260504225502 71 207 4.0 6.0 0.00 0.00 0.00 64 1000.2
20260504225003 71 321 8.0 12.0 0.00 0.00 0.00 62 1000.6
20260504224501 71 291 2.0 6.0 0.00 0.00 0.00 66 1000.5
20260504224002 71 269 2.0 4.0 0.00 0.00 0.00 66 1000.6
20260504223502 74 293 4.0 10.0 0.00 0.00 0.00 57 1000.3
20260504223002 75 216 7.0 11.0 0.00 0.00 0.00 53 1000.2
20260504222502 75 256 8.0 14.0 0.00 0.00 0.00 52 1000.2
20260504222002 75 269 13.0 15.0 0.00 0.00 0.00 52 1000.1
20260504221502 75 193 8.0 12.0 0.00 0.00 0.00 52 1000.3
20260504221002 75 288 3.0 7.0 0.00 0.00 0.00 52 1000.3
20260504220502 75 211 9.0 11.0 0.00 0.00 0.00 51 1000.7
20260504220002 76 256 4.0 10.0 0.00 0.00 0.00 51 1000.3
20260504215501 76 242 4.0 10.0 0.00 0.00 0.00 49 1000.4
20260504215002 76 224 6.0 9.0 0.00 0.00 0.00 48 1000.6
20260504214502 76 255 6.0 11.0 0.00 0.00 0.00 47 1000.7
20260504214002 76 225 6.0 12.0 0.00 0.00 0.00 47 1000.5
20260504213503 76 236 4.0 10.0 0.00 0.00 0.00 47 1000.4
20260504213002 78 264 3.0 14.0 0.00 0.00 0.00 46 1000.6
20260504212502 79 257 6.0 14.0 0.00 0.00 0.00 45 1000.8
20260504212001 79 199 5.0 14.0 0.00 0.00 0.00 46 1000.8
20260504211502 78 220 8.0 12.0 0.00 0.00 0.00 46 1001.0
20260504211003 77 186 7.0 13.0 0.00 0.00 0.00 48 1001.1
20260504210501 77 230 4.0 6.0 0.00 0.00 0.00 47 1001.0
20260504210002 77 167 10.0 15.0 0.00 0.00 0.00 45 1001.4
20260504205502 78 220 6.0 9.0 0.00 0.00 0.00 46 1001.3
20260504205001 79 233 6.0 15.0 0.00 0.00 0.00 45 1001.4
20260504204502 80 198 8.0 13.0 0.00 0.00 0.00 47 1001.5
20260504204002 80 213 6.0 11.0 0.00 0.00 0.00 46 1001.6
20260504203501 80 242 6.0 11.0 0.00 0.00 0.00 42 1001.2
20260504203003 80 210 8.0 11.0 0.00 0.00 0.00 42 1001.1
20260504202502 79 231 4.0 9.0 0.00 0.00 0.00 41 1001.3
20260504202002 81 271 6.0 18.0 0.00 0.00 0.00 40 1001.2
20260504201502 81 244 6.0 9.0 0.00 0.00 0.00 39 1001.4
20260504201002 81 214 9.0 11.0 0.00 0.00 0.00 39 1001.6
20260504200501 81 271 12.0 16.0 0.00 0.00 0.00 38 1001.5
20260504200002 80 255 6.0 12.0 0.00 0.00 0.00 38 1001.6
20260504195502 80 246 8.0 12.0 0.00 0.00 0.00 38 1001.6
20260504195001 79 210 7.0 9.0 0.00 0.00 0.00 42 1001.8
20260504194502 79 203 3.0 10.0 0.00 0.00 0.00 37 1001.6
20260504194002 81 296 9.0 14.0 0.00 0.00 0.00 37 1001.9
20260504193502 80 296 12.0 15.0 0.00 0.00 0.00 37 1001.8
20260504193003 79 249 5.0 12.0 0.00 0.00 0.00 38 1002.1
20260504192503 79 349 8.0 10.0 0.00 0.00 0.00 37 1001.9
20260504192001 80 212 11.0 18.0 0.00 0.00 0.00 37 1001.8
20260504191502 80 280 7.0 12.0 0.00 0.00 0.00 38 1002.1
20260504191002 80 277 8.0 9.0 0.00 0.00 0.00 40 1002.0
20260504190502 79 213 7.0 10.0 0.00 0.00 0.00 40 1002.3
20260504190002 80 255 2.0 7.0 0.00 0.00 0.00 44 1002.2
20260504185502 80 301 7.0 13.0 0.00 0.00 0.00 40 1002.0
20260504185002 80 7 5.0 11.0 0.00 0.00 0.00 44 1002.2
20260504184502 79 213 6.0 11.0 0.00 0.00 0.00 43 1002.3
20260504184002 79 268 4.0 14.0 0.00 0.00 0.00 41 1002.6
20260504183501 79 217 7.0 11.0 0.00 0.00 0.00 42 1002.3
20260504183002 78 216 4.0 9.0 0.00 0.00 0.00 43 1002.5
20260504182502 78 221 5.0 15.0 0.00 0.00 0.00 44 1002.4
20260504182002 78 226 11.0 16.0 0.00 0.00 0.00 42 1002.6
20260504181502 78 199 6.0 11.0 0.00 0.00 0.00 43 1002.5
20260504181001 78 254 6.0 9.0 0.00 0.00 0.00 43 1002.6
20260504180502 77 313 3.0 9.0 0.00 0.00 0.00 46 1002.7
20260504180002 77 225 7.0 15.0 0.00 0.00 0.00 44 1002.6
20260504175502 77 250 4.0 10.0 0.00 0.00 0.00 45 1002.8
20260504175002 77 202 4.0 9.0 0.00 0.00 0.00 47 1002.8
20260504174502 77 185 4.0 7.0 0.00 0.00 0.00 46 1002.8
20260504174002 77 254 5.0 11.0 0.00 0.00 0.00 48 1003.0
20260504173502 77 266 2.0 6.0 0.00 0.00 0.00 50 1003.0